Aérodrome :
LOGIN :

S'inscrire | Disclaimer

   EN    FR    IT 

 










Légende :    VFR   VFR Marginal   IFR   IFR Intensif   IFR Très Intensif
Visi : 
Plafond : 
>= 8 km
>= 3000ft
5 à 8 km
1000 à 3000 ft
1500m à 5 km
500 à 1000 ft
800 à 1500m
200 à 500 ft
< 800m
< 200 ft
Symboles :   Orages  Brouillard  Fortes neiges  Fortes précipitations  Vent > 20 kt
SIGMETs :   Divers  Orages  Givrage  Turbulence  Onde Orograph.  Cendres Volcan.







- Altitude de l'aérodrome : 137 ft


LIPS - Istrana AFB Treviso

DERNIER METAR :
  • 160455Z 35005KT 9999 SCT060 15/12 Q1020

METARs EXPIRÉS :
  • 160355Z 34004KT 9999 FEW100 15/12 Q1019 RMK BKN BKN200 VIS MIN 9999 WIND THR26 30001KT WIND THR08 36004KT BLU
  • 160255Z 36004KT 9999 SCT070 15/13 Q1019 RMK BKN BKN200 VIS MIN 9999 WIND THR26 33004KT WIND THR08 36004KT BLU

TAF TAF LIPS
Valide du 16 à 06h jusqu'au 16 à 15h UTC


160500Z 1606/1615 01005KT 9999 SCT080
Pas de NOTAMs connus pour ce terrain.



MET'MAP, la Météo Aéronautique d'un coup d'oeil ! - Copyright ORBIFLY Décembre 2007 - Disclaimer

ORBIFLY MET'MAP TEAM :

Programmation & Développement : Alexandra Zaïnal
Conception & Développement : Baudouin d'Aumeries
Co-Programmation & Développement : Marc-Olivier Méhu
Soutien technique & logistique : Manuel Goepfert

Contact : metmap@orbifly.com




SOURCES & CREDITS :

   NOAA